NJO YMAY-YBCS

Flight info

Callsign NJO
Flight time N/A
Altitude 38000
Route BORLI DCT KADUV Q76 PORIV/N0463F400 Q76 NONUM
Aircraft CL60/M-SBDE1E2E3FGHIJ1J4J5J7M3RWXYZ/LB1V1D1

Departure

Time N/A
Airport Albury Airport (YMAY)

Arrival

Time 2026-04-30 04:09
Airport Cairns International Airport (YBCS)
Time Latitude Longitude Altitude Speed Heading
2026-04-30 04:06 -16.80004 145.71407 1447 ft 117 kts 147°
2026-04-30 04:07 -16.80594 145.71736 1445 ft 120 kts 150°
2026-04-30 04:07 -16.81361 145.72080 1395 ft 120 kts 155°
2026-04-30 04:07 -16.82163 145.72376 1341 ft 123 kts 155°
2026-04-30 04:08 -16.83759 145.73137 1096 ft 119 kts 153°
2026-04-30 04:08 -16.84512 145.73474 768 ft 117 kts 155°
2026-04-30 04:08 -16.85283 145.73813 508 ft 119 kts 156°
2026-04-30 04:08 -16.86058 145.74142 288 ft 116 kts 157°
2026-04-30 04:09 -16.86813 145.74474 46 ft 123 kts 157°
2026-04-30 04:09 -16.87526 145.74788 17 ft 97 kts 157°
2026-04-30 04:09 -16.87885 145.74948 16 ft 25 kts 156°
2026-04-30 04:09 -16.87954 145.74979 17 ft 7 kts 163°
2026-04-30 04:10 -16.87993 145.74933 18 ft 10 kts 246°
2026-04-30 04:10 -16.88026 145.74898 19 ft 6 kts 164°
2026-04-30 04:10 -16.88080 145.74918 20 ft 9 kts 158°
2026-04-30 04:10 -16.88149 145.74951 20 ft 12 kts 154°
2026-04-30 04:11 -16.88238 145.74991 20 ft 14 kts 157°
2026-04-30 04:11 -16.88287 145.75011 20 ft 0 kts 169°
2026-04-30 04:11 -16.88312 145.75001 20 ft 11 kts 218°
2026-04-30 04:11 -16.88346 145.74933 21 ft 5 kts 245°
2026-04-30 04:12 -16.88353 145.74918 22 ft 2 kts 246°
2026-04-30 04:12 -16.88355 145.74911 22 ft 0 kts 246°
2026-04-30 04:12 -16.88336 145.74918 21 ft 8 kts 59°
2026-04-30 04:13 -16.88331 145.74977 20 ft 6 kts 143°
2026-04-30 04:13 -16.88355 145.74973 21 ft 3 kts 222°
2026-04-30 04:13 -16.88372 145.74959 21 ft 2 kts 194°
2026-04-30 04:13 -16.88384 145.74962 21 ft 1 kts 160°
2026-04-30 04:14 -16.88386 145.74962 21 ft 0 kts 159°
2026-04-30 04:14 -16.88395 145.74966 22 ft 0 kts 158°